This is the latest recevied weather packets stored in our database for station/object K6TTR. If no packets are shown the sender has not sent any weather packets the latest 10 day(s).
| Time | Temp. | Humidity | Pressure | Rain* | Wind** | Luminosity | Snow |
|---|---|---|---|---|---|---|---|
| 1777498711 | 17.22° C | 28% | 1019.5 hPa | 0 mm | - | 1067 W/m² | - |
| 1777498418 | 17.22° C | 29% | 1019.6 hPa | 0 mm | - | 1067 W/m² | - |
| 1777498123 | 17.22° C | 29% | 1019.6 hPa | 0 mm | - | 990 W/m² | - |
| 1777497828 | 17.22° C | 32% | 1019.6 hPa | 0 mm | - | 1097 W/m² | - |
| 1777497512 | 17.22° C | 31% | 1019.6 hPa | 0 mm | - | 1018 W/m² | - |
| 1777496921 | 17.22° C | 33% | 1019.6 hPa | 0 mm | - | 993 W/m² | - |
| 1777496626 | 17.22° C | 33% | 1019.7 hPa | 0 mm | - | 993 W/m² | - |
| 1777496018 | 17.22° C | 35% | 1019.7 hPa | 0 mm | - | 998 W/m² | - |
| 1777495720 | 17.22° C | 36% | 1019.7 hPa | 0 mm | - | 1004 W/m² | - |
| 1777495425 | 17.22° C | 35% | 1019.6 hPa | 0 mm | - | 1004 W/m² | - |
| 1777495130 | 16.67° C | 34% | 1019.8 hPa | 0 mm | - | 1002 W/m² | - |
| 1777494815 | 16.67° C | 35% | 1019.8 hPa | 0 mm | - | 1005 W/m² | - |
| 1777494224 | 16.11° C | 35% | 1019.8 hPa | 0 mm | - | 1007 W/m² | - |
| 1777493911 | 16.11° C | 36% | 1019.8 hPa | 0 mm | - | 1009 W/m² | - |
| 1777493617 | 16.11° C | 38% | 1019.8 hPa | 0 mm | - | 1009 W/m² | - |
| 1777493029 | 15.56° C | 40% | 1020 hPa | 0 mm | - | 1005 W/m² | - |
| 1777492715 | 16.11° C | 41% | 1020.1 hPa | 0 mm | - | 1009 W/m² | - |
| 1777492420 | 16.11° C | 40% | 1020.1 hPa | 0 mm | - | 1004 W/m² | - |
| 1777491829 | 15.56° C | 42% | 1020.2 hPa | 0 mm | - | 998 W/m² | - |
| 1777491512 | 15.56° C | 43% | 1020.4 hPa | 0 mm | - | 995 W/m² | - |
| 1777491216 | 15.56° C | 42% | 1020.5 hPa | 0 mm | - | 995 W/m² | - |
| 1777490921 | 15.56° C | 43% | 1020.5 hPa | 0 mm | - | 990 W/m² | - |
| 1777490621 | 15° C | 41% | 1020.4 hPa | 0 mm | - | 984 W/m² | - |
| 1777490327 | 15° C | 38% | 1020.6 hPa | 0 mm | - | 981 W/m² | - |
| 1777490031 | 14.44° C | 41% | 1020.6 hPa | 0 mm | - | 988 W/m² | - |
* Rain latest hour (hover to see other rain measurements)
** Current wind speed in m/s (hover to see current wind gust speed)